Time,TemperatureF,DewpointF,PressureIn,WindDirection,WindDirectionDegrees,WindSpeedMPH,WindSpeedGustMPH,Humidity,HourlyPrecipIn,Conditions,Clouds,dailyrainin,SoftwareType,DateUTC
2013-05-19 00:02:00,57.4,44.4,30.09,NE,51,6.0,7.0,62,0.00,,,0.00,meteohub,2013-05-19 07:02:00,
2013-05-19 00:07:00,57.7,43.9,30.09,ENE,72,8.0,8.0,60,0.00,,,0.00,meteohub,2013-05-19 07:07:00,
2013-05-19 00:12:00,58.3,44.4,30.09,NE,54,6.0,12.0,60,0.00,,,0.00,meteohub,2013-05-19 07:12:00,
2013-05-19 00:17:00,58.3,44.1,30.09,NNE,28,4.0,12.0,59,0.00,,,0.00,meteohub,2013-05-19 07:17:00,
2013-05-19 00:22:00,58.5,43.7,30.09,NE,49,4.0,12.0,58,0.00,,,0.00,meteohub,2013-05-19 07:22:00,
2013-05-19 00:27:00,58.5,43.7,30.09,NNE,22,4.0,10.0,58,0.00,,,0.00,meteohub,2013-05-19 07:27:00,
2013-05-19 00:32:00,58.5,43.3,30.09,ENE,57,7.0,11.0,57,0.00,,,0.00,meteohub,2013-05-19 07:32:00,
2013-05-19 00:37:00,58.5,42.8,30.09,ENE,76,8.0,12.0,56,0.00,,,0.00,meteohub,2013-05-19 07:37:00,
2013-05-19 00:42:00,58.6,42.4,30.09,NE,54,8.0,12.0,55,0.00,,,0.00,meteohub,2013-05-19 07:42:00,
2013-05-19 00:47:00,58.6,42.4,30.09,NE,46,6.0,12.0,55,0.00,,,0.00,meteohub,2013-05-19 07:47:00,
2013-05-19 00:52:00,58.6,42.1,30.09,NE,34,5.0,12.0,54,0.00,,,0.00,meteohub,2013-05-19 07:52:00,
2013-05-19 00:57:00,58.8,41.7,30.09,ENE,57,7.0,12.0,53,0.00,,,0.00,meteohub,2013-05-19 07:57:00,
2013-05-19 01:02:00,58.8,41.2,30.09,NE,51,12.0,12.0,52,0.00,,,0.00,meteohub,2013-05-19 08:02:00,
2013-05-19 01:07:00,59.0,41.9,30.09,NE,51,13.0,14.0,53,0.00,,,0.00,meteohub,2013-05-19 08:07:00,
2013-05-19 01:12:00,58.8,41.2,30.09,NE,55,9.0,14.0,52,0.00,,,0.00,meteohub,2013-05-19 08:12:00,
2013-05-19 01:17:00,59.0,40.8,30.09,ENE,60,7.0,14.0,51,0.00,,,0.00,meteohub,2013-05-19 08:17:00,
2013-05-19 01:22:00,59.4,41.2,30.09,NNE,26,5.0,14.0,51,0.00,,,0.00,meteohub,2013-05-19 08:22:00,
2013-05-19 01:27:00,59.5,40.8,30.09,ENE,67,11.0,14.0,50,0.00,,,0.00,meteohub,2013-05-19 08:27:00,
2013-05-19 01:32:00,59.7,41.0,30.09,NE,49,11.0,14.0,50,0.00,,,0.00,meteohub,2013-05-19 08:32:00,
2013-05-19 01:37:00,59.9,40.6,30.09,NE,51,8.0,13.0,49,0.00,,,0.00,meteohub,2013-05-19 08:37:00,
2013-05-19 01:42:00,59.7,40.5,30.09,NE,53,7.0,14.0,49,0.00,,,0.00,meteohub,2013-05-19 08:42:00,
2013-05-19 01:47:00,59.9,40.6,30.09,NE,53,9.0,14.0,49,0.00,,,0.00,meteohub,2013-05-19 08:47:00,
2013-05-19 01:52:00,59.9,40.6,30.09,ENE,58,7.0,14.0,49,0.00,,,0.00,meteohub,2013-05-19 08:52:00,
2013-05-19 01:57:00,59.7,40.5,30.09,NNE,28,6.0,14.0,49,0.00,,,0.00,meteohub,2013-05-19 08:57:00,
2013-05-19 02:02:00,59.7,40.5,30.09,NE,54,9.0,14.0,49,0.00,,,0.00,meteohub,2013-05-19 09:02:00,
2013-05-19 02:07:00,59.7,40.5,30.09,NE,42,8.0,13.0,49,0.00,,,0.00,meteohub,2013-05-19 09:07:00,
2013-05-19 02:12:00,59.5,40.8,30.09,NNE,15,6.0,14.0,50,0.00,,,0.00,meteohub,2013-05-19 09:12:00,
2013-05-19 02:17:00,59.4,40.6,30.09,NE,42,7.0,14.0,50,0.00,,,0.00,meteohub,2013-05-19 09:17:00,
2013-05-19 02:22:00,59.4,40.3,30.09,NE,51,11.0,14.0,49,0.00,,,0.00,meteohub,2013-05-19 09:22:00,
2013-05-19 02:27:00,59.5,40.3,30.09,NE,53,8.0,14.0,49,0.00,,,0.00,meteohub,2013-05-19 09:27:00,
2013-05-19 02:32:00,59.5,39.9,30.09,NE,44,12.0,15.0,48,0.00,,,0.00,meteohub,2013-05-19 09:32:00,
2013-05-19 02:37:00,59.7,39.9,30.09,NE,55,9.0,15.0,48,0.00,,,0.00,meteohub,2013-05-19 09:37:00,
2013-05-19 02:42:00,59.7,39.9,30.09,NE,53,8.0,15.0,48,0.00,,,0.00,meteohub,2013-05-19 09:42:00,
2013-05-19 02:47:00,59.7,39.9,30.09,NE,39,7.0,13.0,48,0.00,,,0.00,meteohub,2013-05-19 09:47:00,
2013-05-19 02:52:00,59.5,39.9,30.09,NNE,26,8.0,13.0,48,0.00,,,0.00,meteohub,2013-05-19 09:52:00,
2013-05-19 02:57:00,59.7,39.4,30.09,ENE,65,9.0,16.0,47,0.00,,,0.00,meteohub,2013-05-19 09:57:00,
2013-05-19 03:02:00,59.7,39.4,30.09,North,5,7.0,16.0,47,0.00,,,0.00,meteohub,2013-05-19 10:02:00,
2013-05-19 03:07:00,60.1,39.2,30.09,NE,45,7.0,16.0,46,0.00,,,0.00,meteohub,2013-05-19 10:07:00,
2013-05-19 03:12:00,59.9,39.0,30.09,NNE,22,7.0,14.0,46,0.00,,,0.00,meteohub,2013-05-19 10:12:00,
2013-05-19 03:17:00,59.9,39.0,30.09,NE,47,8.0,14.0,46,0.00,,,0.00,meteohub,2013-05-19 10:17:00,
2013-05-19 03:22:00,59.7,38.8,30.09,NE,49,10.0,14.0,46,0.00,,,0.00,meteohub,2013-05-19 10:22:00,
2013-05-19 03:27:00,59.9,38.5,30.09,North,351,6.0,12.0,45,0.00,,,0.00,meteohub,2013-05-19 10:27:00,
2013-05-19 03:32:00,59.9,37.9,30.09,NE,44,7.0,15.0,44,0.00,,,0.00,meteohub,2013-05-19 10:32:00,
2013-05-19 03:37:00,60.1,38.1,30.09,ENE,57,10.0,15.0,44,0.00,,,0.00,meteohub,2013-05-19 10:37:00,
2013-05-19 03:42:00,60.1,38.1,30.09,NNE,26,9.0,15.0,44,0.00,,,0.00,meteohub,2013-05-19 10:42:00,
2013-05-19 03:47:00,59.9,37.9,30.09,NE,35,11.0,14.0,44,0.00,,,0.00,meteohub,2013-05-19 10:47:00,
2013-05-19 03:52:00,59.7,37.8,30.09,NE,40,10.0,14.0,44,0.00,,,0.00,meteohub,2013-05-19 10:52:00,
2013-05-19 03:57:00,59.7,37.2,30.09,NNE,27,7.0,14.0,43,0.00,,,0.00,meteohub,2013-05-19 10:57:00,
2013-05-19 04:02:00,59.7,37.2,30.09,NE,38,10.0,14.0,43,0.00,,,0.00,meteohub,2013-05-19 11:02:00,
2013-05-19 04:07:00,59.7,37.2,30.09,North,351,8.0,15.0,43,0.00,,,0.00,meteohub,2013-05-19 11:07:00,
2013-05-19 04:12:00,59.7,36.5,30.09,NE,36,10.0,15.0,42,0.00,,,0.00,meteohub,2013-05-19 11:12:00,
2013-05-19 04:17:00,60.1,36.9,30.09,NNE,21,7.0,15.0,42,0.00,,,0.00,meteohub,2013-05-19 11:17:00,
2013-05-19 04:22:00,59.9,36.7,30.09,NE,34,10.0,15.0,42,0.00,,,0.00,meteohub,2013-05-19 11:22:00,
2013-05-19 04:26:00,59.9,36.7,30.10,ENE,57,9.0,15.0,42,0.00,,,0.00,meteohub,2013-05-19 11:26:00,
2013-05-19 04:31:00,59.9,36.7,30.10,NE,52,9.0,14.0,42,0.00,,,0.00,meteohub,2013-05-19 11:31:00,
2013-05-19 04:36:00,59.7,36.5,30.10,NE,53,9.0,14.0,42,0.00,,,0.00,meteohub,2013-05-19 11:36:00,
2013-05-19 04:42:00,59.7,36.5,30.09,NNE,27,8.0,16.0,42,0.00,,,0.00,meteohub,2013-05-19 11:42:00,
2013-05-19 04:47:00,59.7,36.5,30.10,NE,50,7.0,16.0,42,0.00,,,0.00,meteohub,2013-05-19 11:47:00,
2013-05-19 04:52:00,59.7,36.5,30.10,NE,54,9.0,16.0,42,0.00,,,0.00,meteohub,2013-05-19 11:52:00,
2013-05-19 04:57:00,59.5,36.5,30.09,NNE,17,10.0,15.0,42,0.00,,,0.00,meteohub,2013-05-19 11:57:00,
2013-05-19 05:02:00,59.5,35.8,30.09,ENE,77,8.0,15.0,41,0.00,,,0.00,meteohub,2013-05-19 12:02:00,
2013-05-19 05:07:00,59.5,35.8,30.09,NE,40,8.0,16.0,41,0.00,,,0.00,meteohub,2013-05-19 12:07:00,
2013-05-19 05:12:00,59.5,35.8,30.10,NE,40,7.0,16.0,41,0.00,,,0.00,meteohub,2013-05-19 12:12:00,
2013-05-19 05:17:00,59.5,35.8,30.09,NNE,26,7.0,16.0,41,0.00,,,0.00,meteohub,2013-05-19 12:17:00,
2013-05-19 05:22:00,59.5,35.2,30.10,NE,36,12.0,16.0,40,0.00,,,0.00,meteohub,2013-05-19 12:22:00,
2013-05-19 05:27:00,59.5,35.2,30.09,NNE,32,13.0,14.0,40,0.00,,,0.00,meteohub,2013-05-19 12:27:00,
2013-05-19 05:32:00,59.5,35.2,30.10,ENE,63,8.0,14.0,40,0.00,,,0.00,meteohub,2013-05-19 12:32:00,
2013-05-19 05:37:00,59.5,35.2,30.10,NE,46,11.0,16.0,40,0.00,,,0.00,meteohub,2013-05-19 12:37:00,
2013-05-19 05:42:00,59.4,35.1,30.10,NE,53,7.0,16.0,40,0.00,,,0.00,meteohub,2013-05-19 12:42:00,
2013-05-19 05:47:00,59.4,35.1,30.10,NNE,26,7.0,16.0,40,0.00,,,0.00,meteohub,2013-05-19 12:47:00,
2013-05-19 05:52:00,59.2,34.9,30.10,NNE,29,9.0,16.0,40,0.00,,,0.00,meteohub,2013-05-19 12:52:00,
2013-05-19 05:57:00,59.0,34.7,30.11,NE,48,7.0,16.0,40,0.00,,,0.00,meteohub,2013-05-19 12:57:00,
2013-05-19 06:02:00,59.0,34.7,30.11,NE,49,12.0,16.0,40,0.00,,,0.00,meteohub,2013-05-19 13:02:00,
2013-05-19 06:07:00,58.8,34.5,30.11,NNE,22,7.0,16.0,40,0.00,,,0.00,meteohub,2013-05-19 13:07:00,
2013-05-19 06:12:00,58.8,34.5,30.11,ENE,67,8.0,16.0,40,0.00,,,0.00,meteohub,2013-05-19 13:12:00,
2013-05-19 06:17:00,58.8,34.5,30.11,NE,45,11.0,16.0,40,0.00,,,0.00,meteohub,2013-05-19 13:17:00,
2013-05-19 06:22:00,58.8,34.5,30.11,NE,49,5.0,14.0,40,0.00,,,0.00,meteohub,2013-05-19 13:22:00,
2013-05-19 06:27:00,58.8,34.5,30.11,NNE,22,5.0,14.0,40,0.00,,,0.00,meteohub,2013-05-19 13:27:00,
2013-05-19 06:32:00,58.8,34.5,30.11,NNE,18,2.0,14.0,40,0.00,,,0.00,meteohub,2013-05-19 13:32:00,
2013-05-19 06:37:00,58.6,35.1,30.11,NNE,15,6.0,13.0,41,0.00,,,0.00,meteohub,2013-05-19 13:37:00,
2013-05-19 06:42:00,58.6,35.1,30.11,NE,46,7.0,14.0,41,0.00,,,0.00,meteohub,2013-05-19 13:42:00,
2013-05-19 06:47:00,58.6,35.1,30.11,NE,54,6.0,14.0,41,0.00,,,0.00,meteohub,2013-05-19 13:47:00,
2013-05-19 06:52:00,58.8,35.8,30.11,NNE,27,6.0,14.0,42,0.00,,,0.00,meteohub,2013-05-19 13:52:00,
2013-05-19 06:57:00,58.8,35.8,30.11,NE,52,6.0,13.0,42,0.00,,,0.00,meteohub,2013-05-19 13:57:00,
2013-05-19 07:02:00,58.8,35.8,30.11,NE,41,7.0,13.0,42,0.00,,,0.00,meteohub,2013-05-19 14:02:00,
2013-05-19 07:07:00,58.8,36.3,30.11,NNE,21,5.0,12.0,43,0.00,,,0.00,meteohub,2013-05-19 14:07:00,
2013-05-19 07:12:00,58.8,37.0,30.11,NE,49,7.0,12.0,44,0.00,,,0.00,meteohub,2013-05-19 14:12:00,
2013-05-19 07:17:00,58.6,37.4,30.11,NE,46,12.0,13.0,45,0.00,,,0.00,meteohub,2013-05-19 14:17:00,
2013-05-19 07:22:00,58.8,37.6,30.11,NE,39,7.0,13.0,45,0.00,,,0.00,meteohub,2013-05-19 14:22:00,
2013-05-19 07:27:00,58.8,37.6,30.11,NNE,32,11.0,17.0,45,0.00,,,0.00,meteohub,2013-05-19 14:27:00,
2013-05-19 07:32:00,59.0,38.3,30.11,ENE,57,7.0,17.0,46,0.00,,,0.00,meteohub,2013-05-19 14:32:00,
2013-05-19 07:37:00,59.2,38.5,30.11,NNE,17,9.0,17.0,46,0.00,,,0.00,meteohub,2013-05-19 14:37:00,
2013-05-19 07:42:00,59.4,37.9,30.11,North,350,8.0,17.0,45,0.00,,,0.00,meteohub,2013-05-19 14:42:00,
2013-05-19 07:47:00,59.5,38.1,30.11,NNE,24,5.0,17.0,45,0.00,,,0.00,meteohub,2013-05-19 14:47:00,
2013-05-19 07:52:00,59.7,37.8,30.11,NNE,30,6.0,17.0,44,0.00,,,0.00,meteohub,2013-05-19 14:52:00,
2013-05-19 07:57:00,60.1,38.1,30.11,NNE,27,11.0,16.0,44,0.00,,,0.00,meteohub,2013-05-19 14:57:00,
2013-05-19 08:01:00,60.3,38.3,30.11,NNE,21,7.0,16.0,44,0.00,,,0.00,meteohub,2013-05-19 15:01:00,
2013-05-19 08:06:00,60.4,37.8,30.11,NE,45,7.0,16.0,43,0.00,,,0.00,meteohub,2013-05-19 15:06:00,
2013-05-19 08:12:00,60.6,37.9,30.11,ENE,67,8.0,16.0,43,0.00,,,0.00,meteohub,2013-05-19 15:12:00,
2013-05-19 08:17:00,61.2,38.5,30.11,ENE,58,14.0,16.0,43,0.00,,,0.00,meteohub,2013-05-19 15:17:00,
2013-05-19 08:22:00,61.3,38.7,30.11,ENE,61,10.0,16.0,43,0.00,,,0.00,meteohub,2013-05-19 15:22:00,
2013-05-19 08:27:00,61.7,39.0,30.11,North,0,7.0,16.0,43,0.00,,,0.00,meteohub,2013-05-19 15:27:00,
2013-05-19 08:32:00,62.1,38.7,30.11,NNE,31,9.0,16.0,42,0.00,,,0.00,meteohub,2013-05-19 15:32:00,
2013-05-19 08:37:00,62.1,38.1,30.12,NNE,33,9.0,17.0,41,0.00,,,0.00,meteohub,2013-05-19 15:37:00,
2013-05-19 08:42:00,62.2,37.6,30.12,ENE,59,9.0,17.0,40,0.00,,,0.00,meteohub,2013-05-19 15:42:00,
2013-05-19 08:47:00,62.4,39.0,30.12,NNE,30,8.0,17.0,42,0.00,,,0.00,meteohub,2013-05-19 15:47:00,
2013-05-19 08:52:00,62.8,38.7,30.11,NNE,33,12.0,21.0,41,0.00,,,0.00,meteohub,2013-05-19 15:52:00,
2013-05-19 08:56:00,62.8,38.1,30.11,NNE,30,10.0,21.0,40,0.00,,,0.00,meteohub,2013-05-19 15:56:00,
2013-05-19 09:01:00,62.8,38.7,30.11,NNE,26,7.0,21.0,41,0.00,,,0.00,meteohub,2013-05-19 16:01:00,
2013-05-19 09:06:00,63.0,38.3,30.12,NE,34,6.0,16.0,40,0.00,,,0.00,meteohub,2013-05-19 16:06:00,
2013-05-19 09:11:00,63.1,37.8,30.12,NNE,26,5.0,17.0,39,0.00,,,0.00,meteohub,2013-05-19 16:11:00,
2013-05-19 09:16:00,63.7,38.8,30.12,ENE,62,10.0,17.0,40,0.00,,,0.00,meteohub,2013-05-19 16:16:00,
2013-05-19 09:21:00,64.0,38.7,30.12,NW,322,6.0,17.0,39,0.00,,,0.00,meteohub,2013-05-19 16:21:00,
2013-05-19 09:26:00,64.2,38.7,30.12,NE,38,8.0,15.0,39,0.00,,,0.00,meteohub,2013-05-19 16:26:00,
2013-05-19 09:31:00,64.8,39.2,30.11,NNE,31,7.0,15.0,39,0.00,,,0.00,meteohub,2013-05-19 16:31:00,
2013-05-19 09:37:00,65.1,38.8,30.11,North,0,7.0,16.0,38,0.00,,,0.00,meteohub,2013-05-19 16:37:00,
2013-05-19 09:42:00,65.3,39.0,30.11,NE,47,7.0,16.0,38,0.00,,,0.00,meteohub,2013-05-19 16:42:00,
2013-05-19 09:47:00,65.5,39.2,30.11,NNE,24,7.0,16.0,38,0.00,,,0.00,meteohub,2013-05-19 16:47:00,
2013-05-19 09:52:00,66.0,39.7,30.11,North,11,10.0,15.0,38,0.00,,,0.00,meteohub,2013-05-19 16:52:00,
2013-05-19 09:57:00,66.7,40.3,30.11,NE,49,7.0,14.0,38,0.00,,,0.00,meteohub,2013-05-19 16:57:00,
2013-05-19 10:01:00,66.9,39.0,30.11,ENE,66,8.0,14.0,36,0.00,,,0.00,meteohub,2013-05-19 17:01:00,
2013-05-19 10:06:00,67.3,38.7,30.10,NE,41,10.0,14.0,35,0.00,,,0.00,meteohub,2013-05-19 17:06:00,
2013-05-19 10:11:00,67.6,38.3,30.10,ENE,67,9.0,14.0,34,0.00,,,0.00,meteohub,2013-05-19 17:11:00,
2013-05-19 10:16:00,67.8,37.6,30.10,NE,47,8.0,18.0,33,0.00,,,0.00,meteohub,2013-05-19 17:16:00,
2013-05-19 10:21:00,67.8,36.9,30.10,NE,53,9.0,18.0,32,0.00,,,0.00,meteohub,2013-05-19 17:21:00,
2013-05-19 10:26:00,67.8,36.9,30.10,NNE,20,10.0,18.0,32,0.00,,,0.00,meteohub,2013-05-19 17:26:00,
2013-05-19 10:31:00,68.4,35.8,30.10,North,355,4.0,16.0,30,0.00,,,0.00,meteohub,2013-05-19 17:31:00,
2013-05-19 10:36:00,68.7,36.9,30.10,NE,38,5.0,16.0,31,0.00,,,0.00,meteohub,2013-05-19 17:36:00,
2013-05-19 10:42:00,69.4,34.9,30.10,NNE,12,9.0,14.0,28,0.00,,,0.00,meteohub,2013-05-19 17:42:00,
2013-05-19 10:47:00,69.6,34.2,30.10,NNE,32,4.0,12.0,27,0.00,,,0.00,meteohub,2013-05-19 17:47:00,
2013-05-19 10:52:00,69.8,33.4,30.10,North,5,7.0,13.0,26,0.00,,,0.00,meteohub,2013-05-19 17:52:00,
2013-05-19 10:57:00,70.0,34.5,30.10,NNE,28,4.0,15.0,27,0.00,,,0.00,meteohub,2013-05-19 17:57:00,
2013-05-19 11:02:00,69.6,33.3,30.10,NE,39,7.0,17.0,26,0.00,,,0.00,meteohub,2013-05-19 18:02:00,
2013-05-19 11:07:00,69.6,33.3,30.10,NE,43,13.0,17.0,26,0.00,,,0.00,meteohub,2013-05-19 18:07:00,
2013-05-19 11:12:00,69.6,32.2,30.10,NNE,18,7.0,18.0,25,0.00,,,0.00,meteohub,2013-05-19 18:12:00,
2013-05-19 11:17:00,70.2,34.7,30.10,NNE,15,7.0,18.0,27,0.00,,,0.00,meteohub,2013-05-19 18:17:00,
2013-05-19 11:22:00,70.5,34.0,30.10,NNE,17,7.0,18.0,26,0.00,,,0.00,meteohub,2013-05-19 18:22:00,
2013-05-19 11:27:00,71.1,31.5,30.10,NE,54,7.0,14.0,23,0.00,,,0.00,meteohub,2013-05-19 18:27:00,
2013-05-19 11:32:00,71.2,32.5,30.10,NNW,337,5.0,13.0,24,0.00,,,0.00,meteohub,2013-05-19 18:32:00,
2013-05-19 11:37:00,71.4,32.7,30.10,WNW,299,10.0,13.0,24,0.00,,,0.00,meteohub,2013-05-19 18:37:00,
2013-05-19 11:42:00,71.8,33.1,30.10,NNW,330,5.0,13.0,24,0.00,,,0.00,meteohub,2013-05-19 18:42:00,
2013-05-19 11:46:00,71.6,34.0,30.10,NE,37,8.0,17.0,25,0.00,,,0.00,meteohub,2013-05-19 18:46:00,
2013-05-19 11:51:00,72.0,32.2,30.10,NE,51,7.0,17.0,23,0.00,,,0.00,meteohub,2013-05-19 18:51:00,
2013-05-19 11:57:00,72.0,32.2,30.10,NE,49,7.0,17.0,23,0.00,,,0.00,meteohub,2013-05-19 18:57:00,
2013-05-19 12:02:00,71.8,33.1,30.09,NNW,336,5.0,17.0,24,0.00,,,0.00,meteohub,2013-05-19 19:02:00,
2013-05-19 12:07:00,72.1,34.3,30.09,North,355,8.0,17.0,25,0.00,,,0.00,meteohub,2013-05-19 19:07:00,
2013-05-19 12:12:00,72.7,34.9,30.10,NNW,348,5.0,17.0,25,0.00,,,0.00,meteohub,2013-05-19 19:12:00,
2013-05-19 12:17:00,72.7,33.8,30.09,NW,308,4.0,13.0,24,0.00,,,0.00,meteohub,2013-05-19 19:17:00,
2013-05-19 12:22:00,72.9,34.0,30.09,NE,45,10.0,13.0,24,0.00,,,0.00,meteohub,2013-05-19 19:22:00,
2013-05-19 12:27:00,72.7,33.8,30.09,NNW,329,2.0,16.0,24,0.00,,,0.00,meteohub,2013-05-19 19:27:00,
2013-05-19 12:32:00,73.2,35.2,30.09,ENE,65,8.0,16.0,25,0.00,,,0.00,meteohub,2013-05-19 19:32:00,
2013-05-19 12:37:00,73.6,35.6,30.09,NW,320,7.0,16.0,25,0.00,,,0.00,meteohub,2013-05-19 19:37:00,
2013-05-19 12:42:00,73.9,33.8,30.08,WNW,302,4.0,16.0,23,0.00,,,0.00,meteohub,2013-05-19 19:42:00,
2013-05-19 12:47:00,73.9,32.7,30.08,North,5,12.0,16.0,22,0.00,,,0.00,meteohub,2013-05-19 19:47:00,
2013-05-19 12:52:00,73.2,33.3,30.08,NE,54,4.0,17.0,23,0.00,,,0.00,meteohub,2013-05-19 19:52:00,
2013-05-19 12:57:00,73.6,32.4,30.08,NNW,336,8.0,17.0,22,0.00,,,0.00,meteohub,2013-05-19 19:57:00,
2013-05-19 13:02:00,73.9,32.7,30.08,North,5,5.0,17.0,22,0.00,,,0.00,meteohub,2013-05-19 20:02:00,
2013-05-19 13:07:00,74.3,33.1,30.07,ENE,58,12.0,17.0,22,0.00,,,0.00,meteohub,2013-05-19 20:07:00,
2013-05-19 13:12:00,74.5,32.0,30.07,NNE,17,5.0,13.0,21,0.00,,,0.00,meteohub,2013-05-19 20:12:00,
2013-05-19 13:17:00,74.3,31.8,30.07,NE,42,3.0,13.0,21,0.00,,,0.00,meteohub,2013-05-19 20:17:00,
2013-05-19 13:22:00,74.7,32.2,30.06,NNW,344,5.0,13.0,21,0.00,,,0.00,meteohub,2013-05-19 20:22:00,
2013-05-19 13:27:00,75.0,31.3,30.06,NNE,18,7.0,13.0,20,0.00,,,0.00,meteohub,2013-05-19 20:27:00,
2013-05-19 13:32:00,75.2,32.5,30.06,ENE,57,9.0,12.0,21,0.00,,,0.00,meteohub,2013-05-19 20:32:00,
2013-05-19 13:37:00,75.4,32.7,30.06,NW,304,6.0,12.0,21,0.00,,,0.00,meteohub,2013-05-19 20:37:00,
2013-05-19 13:42:00,75.4,32.7,30.06,NNE,19,3.0,12.0,21,0.00,,,0.00,meteohub,2013-05-19 20:42:00,
2013-05-19 13:47:00,75.7,33.1,30.06,NW,308,8.0,12.0,21,0.00,,,0.00,meteohub,2013-05-19 20:47:00,
2013-05-19 13:52:00,76.1,35.6,30.06,WNW,294,5.0,13.0,23,0.00,,,0.00,meteohub,2013-05-19 20:52:00,
2013-05-19 13:57:00,76.5,33.6,30.06,North,5,2.0,13.0,21,0.00,,,0.00,meteohub,2013-05-19 20:57:00,
2013-05-19 14:02:00,76.5,34.9,30.06,ENE,62,3.0,13.0,22,0.00,,,0.00,meteohub,2013-05-19 21:02:00,
2013-05-19 14:07:00,76.6,31.3,30.06,NW,309,7.0,10.0,19,0.00,,,0.00,meteohub,2013-05-19 21:07:00,
2013-05-19 14:12:00,76.8,32.7,30.06,NE,38,9.0,13.0,20,0.00,,,0.00,meteohub,2013-05-19 21:12:00,
2013-05-19 14:17:00,76.8,31.5,30.05,North,0,5.0,13.0,19,0.00,,,0.00,meteohub,2013-05-19 21:17:00,
2013-05-19 14:22:00,77.2,30.4,30.06,NNE,32,7.0,13.0,18,0.00,,,0.00,meteohub,2013-05-19 21:22:00,
2013-05-19 14:27:00,76.6,31.3,30.05,NE,50,10.0,11.0,19,0.00,,,0.00,meteohub,2013-05-19 21:27:00,
2013-05-19 14:32:00,76.5,31.1,30.05,NE,49,5.0,14.0,19,0.00,,,0.00,meteohub,2013-05-19 21:32:00,
2013-05-19 14:37:00,76.5,31.1,30.05,WSW,254,6.0,14.0,19,0.00,,,0.00,meteohub,2013-05-19 21:37:00,
2013-05-19 14:42:00,77.4,33.1,30.05,NE,56,6.0,14.0,20,0.00,,,0.00,meteohub,2013-05-19 21:42:00,
2013-05-19 14:47:00,77.9,30.9,30.04,NNE,23,11.0,11.0,18,0.00,,,0.00,meteohub,2013-05-19 21:47:00,
2013-05-19 14:52:00,78.1,29.7,30.04,NNW,333,7.0,11.0,17,0.00,,,0.00,meteohub,2013-05-19 21:52:00,
2013-05-19 14:57:00,78.1,29.7,30.05,NNW,339,6.0,11.0,17,0.00,,,0.00,meteohub,2013-05-19 21:57:00,
2013-05-19 15:02:00,78.1,31.1,30.04,NNE,13,6.0,15.0,18,0.00,,,0.00,meteohub,2013-05-19 22:02:00,
2013-05-19 15:07:00,78.3,31.3,30.04,NNW,348,3.0,15.0,18,0.00,,,0.00,meteohub,2013-05-19 22:07:00,
2013-05-19 15:12:00,78.6,31.6,30.04,NW,320,4.0,15.0,18,0.00,,,0.00,meteohub,2013-05-19 22:12:00,
2013-05-19 15:17:00,79.0,33.3,30.04,NNW,337,5.0,11.0,19,0.00,,,0.00,meteohub,2013-05-19 22:17:00,
2013-05-19 15:22:00,79.3,32.2,30.04,North,351,5.0,11.0,18,0.00,,,0.00,meteohub,2013-05-19 22:22:00,
2013-05-19 15:27:00,79.5,30.9,30.03,NW,318,4.0,12.0,17,0.00,,,0.00,meteohub,2013-05-19 22:27:00,
2013-05-19 15:32:00,79.7,32.4,30.04,NNW,340,4.0,12.0,18,0.00,,,0.00,meteohub,2013-05-19 22:32:00,
2013-05-19 15:37:00,79.5,30.9,30.03,NW,322,2.0,12.0,17,0.00,,,0.00,meteohub,2013-05-19 22:37:00,
2013-05-19 15:42:00,79.9,32.5,30.03,WNW,286,8.0,12.0,18,0.00,,,0.00,meteohub,2013-05-19 22:42:00,
2013-05-19 15:47:00,80.1,34.2,30.03,NW,305,7.0,11.0,19,0.00,,,0.00,meteohub,2013-05-19 22:47:00,
2013-05-19 15:52:00,80.1,32.7,30.03,NE,44,3.0,10.0,18,0.00,,,0.00,meteohub,2013-05-19 22:52:00,
2013-05-19 15:57:00,80.2,31.5,30.03,NNE,24,5.0,10.0,17,0.00,,,0.00,meteohub,2013-05-19 22:57:00,
2013-05-19 16:02:00,79.9,29.7,30.02,NE,46,7.0,10.0,16,0.00,,,0.00,meteohub,2013-05-19 23:02:00,
2013-05-19 16:07:00,79.3,30.7,30.02,East,81,7.0,12.0,17,0.00,,,0.00,meteohub,2013-05-19 23:07:00,
2013-05-19 16:12:00,79.2,30.6,30.02,NE,40,5.0,12.0,17,0.00,,,0.00,meteohub,2013-05-19 23:12:00,
2013-05-19 16:17:00,79.3,30.7,30.01,ENE,58,4.0,12.0,17,0.00,,,0.00,meteohub,2013-05-19 23:17:00,
2013-05-19 16:22:00,79.5,30.9,30.01,North,9,4.0,12.0,17,0.00,,,0.00,meteohub,2013-05-19 23:22:00,
2013-05-19 16:27:00,79.9,29.7,30.01,North,349,5.0,11.0,16,0.00,,,0.00,meteohub,2013-05-19 23:27:00,
2013-05-19 16:32:00,79.9,29.7,30.01,NE,40,9.0,12.0,16,0.00,,,0.00,meteohub,2013-05-19 23:32:00,
2013-05-19 16:37:00,80.1,29.8,30.01,NE,42,4.0,12.0,16,0.00,,,0.00,meteohub,2013-05-19 23:37:00,
2013-05-19 16:42:00,80.2,30.0,30.01,ENE,59,7.0,12.0,16,0.00,,,0.00,meteohub,2013-05-19 23:42:00,
2013-05-19 16:47:00,80.4,28.6,30.01,North,5,4.0,11.0,15,0.00,,,0.00,meteohub,2013-05-19 23:47:00,
2013-05-19 16:52:00,80.6,28.8,30.01,NE,46,3.0,10.0,15,0.00,,,0.00,meteohub,2013-05-19 23:52:00,
2013-05-19 16:57:00,80.4,28.6,30.01,NNE,30,3.0,10.0,15,0.00,,,0.00,meteohub,2013-05-19 23:57:00,
2013-05-19 17:02:00,80.8,25.3,30.01,North,0,4.0,11.0,13,0.00,,,0.00,meteohub,2013-05-20 00:02:00,
2013-05-19 17:07:00,80.8,27.1,30.01,North,0,4.0,11.0,14,0.00,,,0.00,meteohub,2013-05-20 00:07:00,
2013-05-19 17:12:00,81.0,27.3,30.01,NW,317,4.0,11.0,14,0.00,,,0.00,meteohub,2013-05-20 00:12:00,
2013-05-19 17:17:00,81.1,29.1,30.00,ENE,68,7.0,10.0,15,0.00,,,0.00,meteohub,2013-05-20 00:17:00,
2013-05-19 17:22:00,81.1,27.5,30.00,NE,53,6.0,8.0,14,0.00,,,0.00,meteohub,2013-05-20 00:22:00,
2013-05-19 17:27:00,80.8,25.3,30.00,ENE,74,4.0,9.0,13,0.00,,,0.00,meteohub,2013-05-20 00:27:00,
2013-05-19 17:32:00,80.6,28.8,30.00,North,350,6.0,10.0,15,0.00,,,0.00,meteohub,2013-05-20 00:32:00,
2013-05-19 17:37:00,80.8,27.1,30.00,NE,52,6.0,10.0,14,0.00,,,0.00,meteohub,2013-05-20 00:37:00,
2013-05-19 17:42:00,80.4,26.8,30.00,NNE,16,5.0,12.0,14,0.00,,,0.00,meteohub,2013-05-20 00:42:00,
2013-05-19 17:47:00,80.4,28.6,30.00,NNE,33,1.0,12.0,15,0.00,,,0.00,meteohub,2013-05-20 00:47:00,
2013-05-19 17:52:00,80.8,30.4,30.00,NNE,26,5.0,12.0,16,0.00,,,0.00,meteohub,2013-05-20 00:52:00,
2013-05-19 17:57:00,80.2,30.0,30.00,NE,51,4.0,9.0,16,0.00,,,0.00,meteohub,2013-05-20 00:57:00,
2013-05-19 18:02:00,80.2,28.4,29.99,NNE,15,4.0,9.0,15,0.00,,,0.00,meteohub,2013-05-20 01:02:00,
2013-05-19 18:07:00,80.2,28.4,29.99,NNE,12,5.0,9.0,15,0.00,,,0.00,meteohub,2013-05-20 01:07:00,
2013-05-19 18:12:00,80.2,30.0,29.99,NE,34,6.0,8.0,16,0.00,,,0.00,meteohub,2013-05-20 01:12:00,
2013-05-19 18:17:00,80.4,28.6,29.99,NE,55,4.0,8.0,15,0.00,,,0.00,meteohub,2013-05-20 01:17:00,
2013-05-19 18:22:00,80.4,31.6,29.99,NE,56,7.0,8.0,17,0.00,,,0.00,meteohub,2013-05-20 01:22:00,
2013-05-19 18:27:00,80.2,28.4,29.99,NNW,342,2.0,7.0,15,0.00,,,0.00,meteohub,2013-05-20 01:27:00,
2013-05-19 18:32:00,80.1,29.8,29.99,ENE,64,5.0,7.0,16,0.00,,,0.00,meteohub,2013-05-20 01:32:00,
2013-05-19 18:37:00,79.7,29.5,29.99,NNE,31,2.0,7.0,16,0.00,,,0.00,meteohub,2013-05-20 01:37:00,
2013-05-19 18:42:00,79.7,29.5,29.99,NNE,22,4.0,7.0,16,0.00,,,0.00,meteohub,2013-05-20 01:42:00,
2013-05-19 18:47:00,79.9,31.1,29.99,North,350,3.0,7.0,17,0.00,,,0.00,meteohub,2013-05-20 01:47:00,
2013-05-19 18:52:00,79.7,29.5,29.99,NNE,27,3.0,7.0,16,0.00,,,0.00,meteohub,2013-05-20 01:52:00,
2013-05-19 18:57:00,79.3,29.3,29.99,NNE,30,5.0,7.0,16,0.00,,,0.00,meteohub,2013-05-20 01:57:00,
2013-05-19 19:02:00,79.2,30.6,29.99,NW,317,2.0,7.0,17,0.00,,,0.00,meteohub,2013-05-20 02:02:00,
2013-05-19 19:07:00,79.2,40.3,29.99,West,274,3.0,7.0,25,0.00,,,0.00,meteohub,2013-05-20 02:07:00,
2013-05-19 19:12:00,79.0,41.2,29.99,WNW,286,3.0,7.0,26,0.00,,,0.00,meteohub,2013-05-20 02:12:00,
2013-05-19 19:17:00,78.4,41.7,29.99,WSW,249,3.0,6.0,27,0.00,,,0.00,meteohub,2013-05-20 02:17:00,
2013-05-19 19:22:00,78.1,41.4,29.99,NW,320,3.0,9.0,27,0.00,,,0.00,meteohub,2013-05-20 02:22:00,
2013-05-19 19:27:00,77.7,42.1,29.99,NW,317,4.0,9.0,28,0.00,,,0.00,meteohub,2013-05-20 02:27:00,
2013-05-19 19:32:00,77.4,41.7,29.99,NW,317,3.0,9.0,28,0.00,,,0.00,meteohub,2013-05-20 02:32:00,
2013-05-19 19:37:00,76.8,42.1,29.99,NW,316,3.0,6.0,29,0.00,,,0.00,meteohub,2013-05-20 02:37:00,
2013-05-19 19:42:00,76.5,42.8,29.99,NW,316,3.0,5.0,30,0.00,,,0.00,meteohub,2013-05-20 02:42:00,
2013-05-19 19:47:00,76.3,42.6,29.99,NW,315,0.0,5.0,30,0.00,,,0.00,meteohub,2013-05-20 02:47:00,
2013-05-19 19:52:00,75.9,42.3,29.99,NW,315,0.0,5.0,30,0.00,,,0.00,meteohub,2013-05-20 02:52:00,
2013-05-19 19:57:00,75.6,42.8,29.99,NW,315,0.0,5.0,31,0.00,,,0.00,meteohub,2013-05-20 02:57:00,
2013-05-19 20:02:00,75.4,42.6,29.99,NW,315,2.0,3.0,31,0.00,,,0.00,meteohub,2013-05-20 03:02:00,
2013-05-19 20:07:00,74.7,42.1,29.99,NW,315,1.0,3.0,31,0.00,,,0.00,meteohub,2013-05-20 03:07:00,
2013-05-19 20:12:00,73.9,43.0,29.99,NW,315,3.0,3.0,33,0.00,,,0.00,meteohub,2013-05-20 03:12:00,
2013-05-19 20:17:00,72.7,42.6,29.99,NW,319,2.0,4.0,34,0.00,,,0.00,meteohub,2013-05-20 03:17:00,
2013-05-19 20:22:00,71.4,38.3,30.00,NE,38,3.0,4.0,30,0.00,,,0.00,meteohub,2013-05-20 03:22:00,
2013-05-19 20:27:00,70.5,32.0,30.00,NE,40,4.0,4.0,24,0.00,,,0.00,meteohub,2013-05-20 03:27:00,
2013-05-19 20:32:00,70.7,31.1,30.00,NE,48,2.0,6.0,23,0.00,,,0.00,meteohub,2013-05-20 03:32:00,
2013-05-19 20:37:00,70.5,27.5,30.00,NE,46,3.0,6.0,20,0.00,,,0.00,meteohub,2013-05-20 03:37:00,
2013-05-19 20:42:00,70.5,25.0,30.00,NE,38,3.0,6.0,18,0.00,,,0.00,meteohub,2013-05-20 03:42:00,
2013-05-19 20:47:00,70.2,27.1,30.00,NNE,24,1.0,6.0,20,0.00,,,0.00,meteohub,2013-05-20 03:47:00,
2013-05-19 20:52:00,70.2,26.1,30.00,NE,42,3.0,6.0,19,0.00,,,0.00,meteohub,2013-05-20 03:52:00,
2013-05-19 20:57:00,70.2,21.9,30.00,NE,36,2.0,6.0,16,0.00,,,0.00,meteohub,2013-05-20 03:57:00,
2013-05-19 21:01:00,70.2,20.3,30.00,NE,35,3.0,6.0,15,0.00,,,0.00,meteohub,2013-05-20 04:01:00,
2013-05-19 21:06:00,70.2,23.4,30.00,NE,40,2.0,5.0,17,0.00,,,0.00,meteohub,2013-05-20 04:06:00,
2013-05-19 21:11:00,70.2,18.7,30.00,North,0,3.0,5.0,14,0.00,,,0.00,meteohub,2013-05-20 04:11:00,
2013-05-19 21:16:00,70.2,18.7,30.00,NE,38,2.0,5.0,14,0.00,,,0.00,meteohub,2013-05-20 04:16:00,
2013-05-19 21:21:00,70.0,21.7,30.01,NE,37,1.0,5.0,16,0.00,,,0.00,meteohub,2013-05-20 04:21:00,
2013-05-19 21:26:00,69.4,18.1,30.01,NE,36,2.0,4.0,14,0.00,,,0.00,meteohub,2013-05-20 04:26:00,
2013-05-19 21:31:00,69.3,23.9,30.00,NE,43,2.0,5.0,18,0.00,,,0.00,meteohub,2013-05-20 04:31:00,
2013-05-19 21:36:00,68.5,20.5,30.01,NE,43,2.0,5.0,16,0.00,,,0.00,meteohub,2013-05-20 04:36:00,
2013-05-19 21:41:00,68.4,20.5,30.01,NE,51,1.0,5.0,16,0.00,,,0.00,meteohub,2013-05-20 04:41:00,
2013-05-19 21:46:00,68.2,18.7,30.01,NE,46,3.0,5.0,15,0.00,,,0.00,meteohub,2013-05-20 04:46:00,
2013-05-19 21:51:00,67.8,24.1,30.01,NE,46,3.0,5.0,19,0.00,,,0.00,meteohub,2013-05-20 04:51:00,
2013-05-19 21:56:00,67.1,22.1,30.01,NNE,26,3.0,4.0,18,0.00,,,0.00,meteohub,2013-05-20 04:56:00,
2013-05-19 22:01:00,66.6,24.3,30.01,NNE,29,4.0,6.0,20,0.00,,,0.00,meteohub,2013-05-20 05:01:00,
2013-05-19 22:06:00,66.4,20.3,30.01,NNE,27,4.0,6.0,17,0.00,,,0.00,meteohub,2013-05-20 05:06:00,
2013-05-19 22:11:00,66.9,20.7,30.01,NE,46,4.0,6.0,17,0.00,,,0.00,meteohub,2013-05-20 05:11:00,
2013-05-19 22:16:00,67.5,21.2,30.01,NNE,26,4.0,7.0,17,0.00,,,0.00,meteohub,2013-05-20 05:16:00,
2013-05-19 22:21:00,67.5,21.2,30.01,NE,54,6.0,7.0,17,0.00,,,0.00,meteohub,2013-05-20 05:21:00,
2013-05-19 22:26:00,67.8,21.4,30.01,NNE,15,4.0,7.0,17,0.00,,,0.00,meteohub,2013-05-20 05:26:00,
2013-05-19 22:31:00,68.2,21.7,30.01,NE,52,7.0,7.0,17,0.00,,,0.00,meteohub,2013-05-20 05:31:00,
2013-05-19 22:36:00,69.1,22.5,30.01,NNE,23,5.0,8.0,17,0.00,,,0.00,meteohub,2013-05-20 05:36:00,
2013-05-19 22:41:00,69.6,24.3,30.01,NE,56,4.0,10.0,18,0.00,,,0.00,meteohub,2013-05-20 05:41:00,
2013-05-19 22:46:00,70.0,25.9,30.02,NE,42,5.0,10.0,19,0.00,,,0.00,meteohub,2013-05-20 05:46:00,
2013-05-19 22:51:00,70.0,28.2,30.02,NE,40,4.0,10.0,21,0.00,,,0.00,meteohub,2013-05-20 05:51:00,
2013-05-19 22:56:00,70.2,29.5,30.01,ENE,71,5.0,11.0,22,0.00,,,0.00,meteohub,2013-05-20 05:56:00,
2013-05-19 23:01:00,70.3,30.7,30.01,NNE,25,7.0,11.0,23,0.00,,,0.00,meteohub,2013-05-20 06:01:00,
2013-05-19 23:06:00,70.2,32.7,30.01,NE,34,6.0,11.0,25,0.00,,,0.00,meteohub,2013-05-20 06:06:00,
2013-05-19 23:11:00,70.2,33.6,30.01,NNE,17,5.0,11.0,26,0.00,,,0.00,meteohub,2013-05-20 06:11:00,
2013-05-19 23:16:00,70.2,33.6,30.01,NNE,24,5.0,12.0,26,0.00,,,0.00,meteohub,2013-05-20 06:16:00,
2013-05-19 23:21:00,70.3,33.8,30.01,North,355,5.0,14.0,26,0.00,,,0.00,meteohub,2013-05-20 06:21:00,
2013-05-19 23:26:00,70.3,34.7,30.01,North,5,5.0,14.0,27,0.00,,,0.00,meteohub,2013-05-20 06:26:00,
2013-05-19 23:31:00,70.2,34.7,30.01,ENE,65,10.0,14.0,27,0.00,,,0.00,meteohub,2013-05-20 06:31:00,
2013-05-19 23:36:00,70.2,34.7,30.01,NE,38,8.0,13.0,27,0.00,,,0.00,meteohub,2013-05-20 06:36:00,
2013-05-19 23:41:00,70.0,35.4,30.01,ENE,57,11.0,13.0,28,0.00,,,0.00,meteohub,2013-05-20 06:41:00,
2013-05-19 23:46:00,70.0,35.4,30.00,NE,44,11.0,13.0,28,0.00,,,0.00,meteohub,2013-05-20 06:46:00,
2013-05-19 23:51:00,70.0,35.4,30.01,NNE,16,7.0,16.0,28,0.00,,,0.00,meteohub,2013-05-20 06:51:00,
2013-05-19 23:56:00,70.2,35.6,30.01,NE,53,12.0,16.0,28,0.00,,,0.00,meteohub,2013-05-20 06:56:00,